Terminal Aerodrome Forecast
Issued by NWS

Home | Current Version | Previous Version | Text Only | Print | Product List | Glossary On
Versions: 1 2 3 4 5 6 7 8 9 10 11 12 13 14 15
000
FTUS45 KGGW 241100
TAFSDY
TAF
KSDY 241126Z 2412/2512 01010KT 5SM -RA BR OVC006
     FM241500 31011KT 3SM -RA BR OVC005
     FM241800 30015KT 6SM -RA BR OVC008
     FM250200 30015KT P6SM OVC025
      AMD LTD TO CLD VIS AND WIND=

USA.gov is the U.S. government's official web portal to all federal, state and local government web resources and services.